Total_Precipitation_Accumulation
1.91 1.88 1.41 0.85 0.64 0.49 0.45 0.49 0.45 0.41 0.39 0.52 0.57 0.55 0.55 0.53 0.51 0.53 0.55 0.56 0.66 0.79 0.91 1.07 1.25 1.55 1.78 2.05 2.32 2.39 2.63 2.83 3.00 3.10 3.04 2.86 2.64 2.49 2.38 2.32 2.26 2.09 1.91 1.78
1.80 1.40 0.77 0.59 0.61 0.60 0.56 0.57 0.48 0.42 0.38 0.46 0.50 0.48 0.53 0.57 0.55 0.48 0.46 0.48 0.53 0.66 0.76 0.87 1.02 1.29 1.48 1.66 1.85 2.00 2.18 2.42 2.64 2.77 2.76 2.79 2.82 2.65 2.43 2.34 2.29 2.25 2.16 2.02
1.29 0.83 0.57 0.64 0.72 0.77 0.67 0.60 0.51 0.46 0.41 0.47 0.49 0.51 0.49 0.51 0.53 0.50 0.46 0.46 0.51 0.64 0.66 0.72 0.83 1.06 1.21 1.34 1.53 1.67 1.83 1.99 2.12 2.48 2.74 2.76 2.83 2.76 2.46 2.20 2.04 2.12 2.21 2.22
1.09 0.65 0.65 0.78 0.73 0.73 0.76 0.49 0.47 0.48 0.63 0.69 0.50 0.63 0.48 0.45 0.47 0.51 0.51 0.51 0.59 0.65 0.68 0.72 0.77 0.91 0.99 1.06 1.26 1.46 1.65 1.79 1.83 2.09 2.38 2.42 2.30 2.26 2.15 2.08 2.10 2.14 2.18 2.22
1.13 0.71 0.73 0.86 0.64 0.62 0.64 0.48 0.54 0.60 0.69 0.71 0.46 0.54 0.51 0.44 0.52 0.55 0.54 0.57 0.62 0.61 0.63 0.70 0.73 0.78 0.85 0.88 0.97 1.18 1.46 1.61 1.67 1.75 1.94 2.16 2.21 2.17 2.18 2.18 2.16 2.11 2.02 2.06
0.85 0.74 0.81 0.73 0.55 0.62 0.66 0.76 0.85 0.86 1.05 1.05 0.43 0.46 0.50 0.48 0.55 0.54 0.49 0.53 0.56 0.55 0.59 0.64 0.63 0.65 0.76 0.75 0.76 0.90 1.11 1.40 1.57 1.63 1.72 1.85 1.93 1.91 1.95 2.03 2.08 2.10 2.01 1.90
1.05 0.84 0.76 0.76 0.90 0.91 1.04 1.51 1.89 1.74 1.52 0.79 0.26 0.34 0.48 0.45 0.46 0.51 0.49 0.47 0.50 0.54 0.55 0.60 0.63 0.68 0.72 0.70 0.66 0.71 0.84 1.09 1.32 1.40 1.42 1.52 1.68 1.74 1.72 1.76 1.90 1.95 1.90 1.80
1.12 0.99 0.69 0.78 1.05 1.12 1.01 1.27 1.47 1.15 0.72 0.36 0.23 0.32 0.41 0.37 0.39 0.39 0.35 0.35 0.42 0.48 0.48 0.52 0.56 0.59 0.58 0.58 0.61 0.65 0.73 0.84 0.96 1.06 1.14 1.24 1.36 1.46 1.45 1.45 1.58 1.66 1.65 1.65
0.90 0.77 0.47 0.55 0.69 0.84 0.99 0.99 0.83 1.00 0.66 0.43 0.28 0.29 0.32 0.29 0.29 0.30 0.29 0.31 0.35 0.37 0.37 0.39 0.44 0.44 0.42 0.44 0.51 0.57 0.60 0.67 0.76 0.83 0.90 1.02 1.08 1.20 1.29 1.32 1.38 1.50 1.51 1.48
0.86 0.91 0.54 0.57 0.83 0.92 0.93 0.85 1.00 1.51 1.14 0.62 0.29 0.26 0.34 0.30 0.28 0.30 0.30 0.28 0.28 0.27 0.29 0.32 0.38 0.39 0.37 0.36 0.37 0.40 0.48 0.61 0.69 0.69 0.76 0.85 0.92 0.99 1.07 1.16 1.21 1.26 1.25 1.23
0.78 1.10 0.79 0.77 0.99 0.94 0.95 1.12 1.20 1.23 0.96 0.82 0.53 0.38 0.32 0.28 0.27 0.28 0.29 0.26 0.23 0.22 0.26 0.28 0.30 0.33 0.37 0.34 0.31 0.32 0.39 0.51 0.59 0.61 0.66 0.71 0.77 0.82 0.87 0.92 0.97 1.02 1.03 1.05
0.76 1.25 1.00 0.67 0.57 0.62 0.79 0.89 1.08 1.44 1.05 0.78 0.67 0.45 0.27 0.23 0.23 0.25 0.26 0.25 0.25 0.25 0.27 0.25 0.24 0.26 0.33 0.33 0.33 0.32 0.36 0.43 0.51 0.56 0.60 0.66 0.68 0.71 0.76 0.82 0.81 0.82 0.85 0.88
0.98 1.49 1.38 0.98 0.84 0.84 0.95 0.82 0.84 1.19 1.46 1.12 0.88 0.48 0.24 0.19 0.19 0.21 0.22 0.25 0.26 0.27 0.28 0.27 0.24 0.23 0.28 0.31 0.32 0.32 0.34 0.40 0.46 0.52 0.55 0.60 0.63 0.64 0.67 0.71 0.74 0.76 0.80 0.86
1.23 1.49 1.25 1.03 0.93 0.97 0.91 0.72 0.83 1.50 1.86 1.05 0.54 0.31 0.20 0.21 0.26 0.25 0.24 0.25 0.28 0.31 0.30 0.30 0.33 0.28 0.27 0.29 0.28 0.27 0.30 0.35 0.39 0.46 0.51 0.53 0.61 0.63 0.63 0.64 0.66 0.70 0.73 0.79
1.07 1.39 0.93 0.59 0.46 0.66 0.70 0.66 0.77 1.12 1.12 1.04 0.53 0.31 0.25 0.27 0.32 0.30 0.27 0.24 0.24 0.26 0.28 0.29 0.31 0.32 0.30 0.29 0.28 0.25 0.26 0.30 0.34 0.40 0.46 0.49 0.55 0.60 0.63 0.64 0.65 0.67 0.69 0.74
0.87 1.14 0.93 0.65 0.39 0.50 0.59 0.56 0.58 0.66 0.69 0.68 0.49 0.43 0.32 0.29 0.29 0.28 0.25 0.23 0.23 0.24 0.26 0.26 0.25 0.27 0.27 0.29 0.31 0.30 0.28 0.28 0.31 0.36 0.40 0.44 0.48 0.51 0.58 0.63 0.64 0.65 0.68 0.74
0.76 1.00 1.18 0.83 0.47 0.59 0.71 0.61 0.59 0.59 0.57 0.59 0.62 0.52 0.39 0.36 0.32 0.30 0.27 0.24 0.23 0.20 0.19 0.21 0.22 0.24 0.24 0.25 0.27 0.29 0.28 0.28 0.30 0.34 0.36 0.40 0.46 0.50 0.54 0.62 0.67 0.74 0.78 0.86
0.51 0.86 1.30 0.97 0.68 0.85 0.64 0.47 0.48 0.52 0.53 0.56 0.53 0.44 0.38 0.35 0.33 0.31 0.28 0.22 0.20 0.18 0.16 0.15 0.16 0.17 0.17 0.18 0.21 0.25 0.27 0.28 0.29 0.33 0.40 0.43 0.47 0.56 0.63 0.66 0.74 0.83 0.90 0.96
0.30 0.73 1.25 1.11 0.85 0.57 0.37 0.33 0.42 0.51 0.56 0.52 0.41 0.32 0.29 0.29 0.30 0.31 0.26 0.20 0.18 0.17 0.19 0.17 0.15 0.16 0.16 0.17 0.20 0.26 0.30 0.32 0.30 0.33 0.40 0.46 0.50 0.61 0.70 0.70 0.75 0.84 0.90 0.96
0.27 0.59 1.21 1.17 0.99 0.55 0.37 0.22 0.24 0.39 0.63 0.44 0.35 0.33 0.32 0.33 0.40 0.34 0.25 0.21 0.20 0.19 0.19 0.21 0.20 0.18 0.21 0.23 0.25 0.31 0.37 0.43 0.45 0.44 0.48 0.56 0.63 0.73 0.78 0.77 0.76 0.76 0.78 0.80
0.45 0.82 1.12 0.99 0.93 0.49 0.32 0.19 0.22 0.57 0.69 0.35 0.31 0.32 0.34 0.36 0.36 0.30 0.22 0.19 0.21 0.23 0.22 0.23 0.24 0.25 0.28 0.29 0.30 0.35 0.40 0.52 0.58 0.59 0.61 0.64 0.71 0.74 0.74 0.73 0.70 0.66 0.63 0.63
0.43 0.62 0.69 0.73 0.95 0.68 0.33 0.26 0.47 0.59 0.35 0.30 0.31 0.33 0.34 0.34 0.28 0.23 0.24 0.22 0.20 0.20 0.22 0.25 0.28 0.30 0.32 0.37 0.42 0.43 0.47 0.54 0.59 0.61 0.61 0.62 0.63 0.64 0.66 0.66 0.63 0.60 0.58 0.57
0.46 0.58 0.60 0.64 0.72 0.58 0.43 0.44 0.44 0.35 0.32 0.29 0.30 0.31 0.30 0.31 0.30 0.25 0.21 0.20 0.20 0.21 0.23 0.27 0.32 0.35 0.38 0.40 0.43 0.46 0.45 0.46 0.49 0.53 0.55 0.53 0.51 0.51 0.53 0.54 0.55 0.54 0.54 0.54
0.43 0.36 0.45 0.54 0.55 0.45 0.40 0.34 0.30 0.27 0.29 0.27 0.25 0.26 0.28 0.30 0.29 0.26 0.23 0.21 0.19 0.19 0.21 0.24 0.27 0.29 0.31 0.33 0.34 0.36 0.35 0.35 0.37 0.40 0.44 0.46 0.44 0.43 0.44 0.44 0.47 0.49 0.50 0.50
0.47 0.41 0.44 0.49 0.44 0.35 0.34 0.31 0.28 0.25 0.23 0.21 0.20 0.19 0.22 0.24 0.24 0.25 0.25 0.23 0.22 0.20 0.21 0.22 0.24 0.26 0.28 0.27 0.28 0.28 0.29 0.30 0.32 0.33 0.35 0.37 0.40 0.42 0.43 0.44 0.47 0.50 0.51 0.56
0.38 0.41 0.49 0.55 0.42 0.41 0.41 0.32 0.26 0.23 0.22 0.21 0.20 0.19 0.18 0.19 0.21 0.20 0.21 0.21 0.22 0.23 0.22 0.22 0.22 0.25 0.29 0.29 0.26 0.25 0.26 0.27 0.31 0.34 0.35 0.36 0.39 0.41 0.41 0.43 0.46 0.52 0.53 0.58